User: anonymous   Login
Location: York
(31.8935°S, 116.7682°E)
Time: 16:18:12
(UTC+08:00)
Language:

A-11 Canister half - Orbit

View from above orbital plane
View from above orbital plane
View from above satellite
View from above satellite

Ground track
Ground track

The orbit data is extracted from the following two-line orbital elements,

1 00051U 60009C   22267.77259835 -.00000125  00000-0 -38123-3 0  9996
2 00051  47.2124 301.7102 0105782 109.4202 251.8053 12.18282249765194
Epoch (UTC): 24 September 2022 18:32:32
Eccentricity: 0.0105782
inclination: 47.2124°
perigee height: 1515 km
apogee height: 1684 km
right ascension of ascending node: 301.7102°
argument of perigee: 109.4202°
revolutions per day: 12.18282249
mean anomaly at epoch: 251.8053°
orbit number at epoch: 76519

The dashed part of the orbit path shows where the satellite is in the earth's shadow,  

DLR